STARLINK-11593, 63318

Orbit data source: Space-Track

STARLINK-11593, 63318 is a payload satellite owned by SpaceX/Seattle (US) in LEO that was launched on Tue, 18 Mar 2025 UTC via an FALCON 9 launch vehicle from the Air Force Eastern Test Range (AFETR). Payload-class satellites include a variety of spacecraft equipped with specific instruments for various scientific and technological missions. These include communications satellites like Starlink; space stations such as the ISS; scientific satellites like the Hubble; Earth observation satellites from companies like Planet Labs, Umbra, and HawkEye 360; GPS; miniature CubeSats for education and research; and military/defense satellites.

Loading next visibility...
Identifier
63318, 2025-057M
Orbit
LEO
Last TLE update
2 days ago
Origin
Manufacturer
SpaceX/Seattle
Mission
Operational spacecraft
Bus & Motor
STARLINK V2M, Unknown motor
Mass
730 kg wet, ~700 kg dry
Launch date (UTC)
2025-03-18 (1 month ago)
Launch vehicle
FALCON 9
Launch site
Air Force Eastern Test Range (AFETR)
Object type
Payload
Rocket body
Debris
Shape & HBR
Unknown
Radar Cross Section
Large (>1 m²)

Expand to show TLE details & history

TLE from 2 days ago
0 STARLINK-11593
1 63318U 25057M   25118.71906214  .00000000  00000-0  34999-5 0  9996
2 63318  43.0017   2.8320 0001520 299.9553  60.1163 15.70833603  7676
Epoch: 2025-04-28T17:15Z
Definitive object data (Epoch: 2025-04-28T17:15:26.968Z)
Latitude
-0.00008°
Longitude
-112.95951°
Altitude
355.775 km
Speed
7.698 km/s
True Right ascension
00h 11m 19s
True Declination
0° 00' 00"
Sunlit
Object was in daylight at TLE epoch
Visualization TLE readout
Latitude
-28.25053°
Longitude
91.40597°
Altitude
363.811 km
Speed
7.692 km/s
Apparent Right ascension
10h 51m 05s
Apparent Declination
-46° 40' 50"
Sunlit
Object is in full shadow
Visualization observer readout
Local Sidereal Time
18:58:35
Azimuth
240.805° WSW
Elevation
-48.133°
Doppler factor
1
Orbital elements
Apogee altitude
359.519 km
Perigee altitude
357.471 km
Semi-major axis
6,736.632 km
Eccentricity
0.000152
Inclination
43.0017°
RAAN
2.832°
Arg. of periapsis
299.9553°
True anomaly
60.1314°
Mean anomaly
60.1163°
Eccentric anomaly
60.12385°
Mean motion
3.92536 °/min
BSTAR
0.0000034999
Orbital period
91.71 mins
Loading maneuver chart data...
Loading SW <> Apogee altitude chart data...
Loading historical data...
Loading historical data...
Loading historical data...
Loading historical data...
Loading historical data...
Loading historical data...
Loading historical data...

STARLINK-11593 Visibility forecast

Observer location: undefined°, undefined°

Span
Click to sort rows by Start time (UTC) header in descending order
Start Az.
Max El. time (UTC)
Max El. Az.
Max El.
End time (UTC)
End Az.
4 mins2025-04-30 19:53:24.949Z246.784° WSW2025-04-30 19:54:24.949Z205.739° SW44.79°2025-04-30 19:57:24.949Z72.474° E
4 mins2025-04-30 21:29:24.949Z299.684° NW2025-04-30 21:30:24.949Z336.605° NNW33.423°2025-04-30 21:33:24.949Z71.192° E
4 mins2025-04-30 23:05:24.949Z294.786° NW2025-04-30 23:07:24.949Z67.29° ENE40.882°2025-04-30 23:09:24.949Z98.784° ESE
|